.
WxDataArchive / Data Records for 2008-02-22
2008-02-21 February 2008 2008-02-23

Data Records for Friday, 22 February 2008

Time	Temp	Chill	HIndex	Humid	Dewpt	 Wind 	HiWind	WindDir	Rain 	Barom 
-----	----	-----	------	-----	-----	------	------	-------	-----	----- 
00:00	19.4	19.4	19.4	88	16.4	1	4	112	0.00	30.005 
00:05	19.4	19.4	19.4	88	16.4	1	3	112	0.00	30.004 
00:10	19.5	19.5	19.5	88	16.5	1	5	112	0.00	30.002 
00:15	19.5	19.5	19.5	88	16.5	1	4	22	0.00	30.004 
00:20	19.5	19.5	19.5	88	16.5	1	4	45	0.00	30.000 
00:25	19.7	19.7	19.7	88	16.7	1	5	112	0.00	29.992 
00:30	19.7	19.7	19.7	88	16.7	0	2	112	0.00	29.993 
00:35	19.7	19.7	19.7	88	16.7	1	3	45	0.00	29.990 
00:40	19.9	19.9	19.9	88	16.9	1	4	112	0.00	29.992 
00:45	19.9	19.9	19.9	88	16.9	1	5	112	0.00	29.989 
00:50	19.9	19.9	19.9	88	16.9	1	3	112	0.00	29.986 
00:55	19.9	19.9	19.9	88	16.9	1	4	112	0.00	29.987 
01:00	19.9	19.9	19.9	88	16.9	1	4	112	0.00	29.989 
01:05	19.9	19.9	19.9	88	16.9	1	3	45	0.00	29.987 
01:10	20.0	20.0	20.0	88	17.0	1	3	45	0.00	29.976 
01:15	19.9	19.9	19.9	88	16.9	1	4	90	0.00	29.972 
01:20	19.9	19.9	19.9	88	16.9	2	5	112	0.00	29.972 
01:25	20.0	20.0	20.0	88	17.0	1	4	112	0.00	29.974 
01:30	20.0	20.0	20.0	88	17.0	1	3	112	0.00	29.975 
01:35	20.0	20.0	20.0	88	17.0	1	4	112	0.00	29.973 
01:40	20.0	20.0	20.0	88	17.0	1	4	112	0.00	29.974 
01:45	19.9	19.9	19.9	87	16.7	1	6	112	0.00	29.972 
01:50	19.9	19.9	19.9	87	16.7	1	4	68	0.00	29.964 
01:55	19.9	19.9	19.9	87	16.7	2	6	68	0.00	29.960 
02:00	19.9	19.9	19.9	87	16.7	2	6	112	0.00	29.961 
02:05	19.9	19.9	19.9	87	16.7	2	5	112	0.00	29.958 
02:10	19.7	19.7	19.7	87	16.5	2	5	112	0.00	29.957 
02:15	19.7	19.7	19.7	87	16.5	1	3	112	0.00	29.958 
02:20	19.7	19.7	19.7	87	16.5	3	5	112	0.00	29.958 
02:25	19.7	19.7	19.7	87	16.5	3	6	112	0.00	29.957 
02:30	19.7	19.7	19.7	87	16.5	2	5	112	0.00	29.955 
02:35	19.7	19.7	19.7	87	16.5	2	5	112	0.00	29.953 
02:40	19.7	19.7	19.7	87	16.5	1	5	135	0.00	29.957 
02:45	19.7	19.7	19.7	87	16.5	1	5	135	0.00	29.950 
02:50	19.7	19.7	19.7	87	16.5	2	5	112	0.00	29.944 
02:55	19.9	19.9	19.9	87	16.7	1	3	112	0.00	29.940 
03:00	19.9	19.9	19.9	87	16.7	0	3	112	0.00	29.942 
03:05	19.9	19.9	19.9	87	16.7	0	2	112	0.00	29.942 
03:10	19.9	19.9	19.9	88	16.9	1	2	90	0.00	29.936 
03:15	19.9	19.9	19.9	87	16.7	1	4	112	0.00	29.937 
03:20	19.9	19.9	19.9	87	16.7	1	4	90	0.00	29.938 
03:25	19.9	19.9	19.9	87	16.7	0	2	90	0.00	29.933 
03:30	20.0	20.0	20.0	87	16.8	1	3	112	0.00	29.925 
03:35	20.0	20.0	20.0	87	16.8	1	3	112	0.00	29.921 
03:40	20.0	20.0	20.0	87	16.8	1	4	112	0.00	29.924 
03:45	20.0	20.0	20.0	87	16.8	1	3	112	0.00	29.923 
03:50	20.0	20.0	20.0	87	16.8	1	3	112	0.00	29.926 
03:55	20.0	20.0	20.0	87	16.8	1	4	112	0.00	29.926 
04:00	20.0	20.0	20.0	87	16.8	0	2	68	0.00	29.922 
04:05	20.0	20.0	20.0	87	16.8	1	3	22	0.00	29.925 
04:10	20.2	20.2	20.2	87	17.0	1	3	68	0.00	29.927 
04:15	20.2	20.2	20.2	87	17.0	1	4	45	0.00	29.925 
04:20	20.2	20.2	20.2	87	17.0	1	3	68	0.00	29.925 
04:25	20.3	20.3	20.3	87	17.1	1	2	90	0.00	29.925 
04:30	20.3	20.3	20.3	87	17.1	1	3	45	0.00	29.925 
04:35	20.3	20.3	20.3	87	17.1	1	4	68	0.00	29.925 
04:40	20.3	20.3	20.3	87	17.1	0	3	112	0.00	29.928 
04:45	20.5	20.5	20.5	87	17.3	1	3	112	0.00	29.932 
04:50	20.5	20.5	20.5	86	17.0	0	3	45	0.00	29.931 
04:55	20.5	20.5	20.5	86	17.0	0	2	90	0.00	29.927 
05:00	20.5	20.5	20.5	86	17.0	1	2	90	0.00	29.926 
05:05	20.5	20.5	20.5	86	17.0	1	3	68	0.00	29.925 
05:10	20.5	20.5	20.5	86	17.0	0	2	45	0.00	29.925 
05:15	20.6	20.6	20.6	86	17.1	0	2	45	0.00	29.925 
05:20	20.6	20.6	20.6	86	17.1	0	2	45	0.00	29.926 
05:25	20.6	20.6	20.6	86	17.1	0	2	45	0.00	29.933 
05:30	20.6	20.6	20.6	86	17.1	0	3	90	0.00	29.938 
05:35	20.6	20.6	20.6	86	17.1	0	1	90	0.00	29.937 
05:40	20.6	20.6	20.6	86	17.1	0	1	90	0.00	29.939 
05:45	20.8	20.8	20.8	87	17.6	0	1	90	0.00	29.937 
05:50	20.8	20.8	20.8	87	17.6	0	1	90	0.00	29.934 
05:55	20.8	20.8	20.8	87	17.6	0	2	90	0.00	29.934 
06:00	20.8	20.8	20.8	87	17.6	1	4	112	0.00	29.929 
06:05	20.8	20.8	20.8	87	17.6	1	4	112	0.00	29.927 
06:10	20.8	20.8	20.8	87	17.6	1	3	112	0.00	29.928 
06:15	20.8	20.8	20.8	87	17.6	1	2	112	0.00	29.930 
06:20	21.0	21.0	21.0	87	17.8	0	3	45	0.00	29.931 
06:25	21.0	21.0	21.0	87	17.8	0	2	135	0.00	29.928 
06:30	21.0	21.0	21.0	87	17.8	0	2	135	0.00	29.936 
06:35	21.0	21.0	21.0	87	17.8	0	2	45	0.00	29.941 
06:40	21.0	21.0	21.0	87	17.8	0	1	22	0.00	29.944 
06:45	21.0	21.0	21.0	87	17.8	0	2	22	0.00	29.941 
06:50	21.1	21.1	21.1	87	17.8	0	2	22	0.00	29.939 
06:55	21.1	21.1	21.1	87	17.8	1	2	112	0.00	29.942 
07:00	21.1	21.1	21.1	86	17.6	1	3	45	0.00	29.944 
07:05	21.1	21.1	21.1	86	17.6	0	2	45	0.00	29.941 
07:10	21.1	21.1	21.1	86	17.6	1	3	68	0.00	29.937 
07:15	21.1	21.1	21.1	86	17.6	0	2	68	0.00	29.939 
07:20	21.1	21.1	21.1	87	17.8	0	3	68	0.00	29.934 
07:25	21.1	21.1	21.1	86	17.6	1	3	90	0.00	29.927 
07:30	21.1	21.1	21.1	86	17.6	1	3	135	0.00	29.931 
07:35	21.1	21.1	21.1	86	17.6	1	3	68	0.00	29.930 
07:40	21.3	21.3	21.3	86	17.8	0	2	68	0.00	29.938 
07:45	21.3	21.3	21.3	86	17.8	0	2	68	0.00	29.937 
07:50	21.4	21.4	21.4	86	17.9	0	2	112	0.00	29.940 
07:55	21.4	21.4	21.4	86	17.9	1	4	112	0.00	29.941 
08:00	21.4	21.4	21.4	86	17.9	0	2	112	0.00	29.937 
08:05	21.6	21.6	21.6	86	18.1	1	3	112	0.00	29.941 
08:10	21.6	21.6	21.6	86	18.1	1	2	112	0.00	29.941 
08:15	21.6	21.6	21.6	86	18.1	1	3	112	0.00	29.940 
08:20	21.8	21.8	21.8	86	18.3	0	2	112	0.00	29.939 
08:25	21.8	21.8	21.8	86	18.3	1	3	45	0.00	29.934 
08:30	21.9	21.9	21.9	86	18.4	2	5	22	0.00	29.928 
08:35	21.9	21.9	21.9	85	18.1	1	3	45	0.00	29.926 
08:40	22.1	22.1	22.1	85	18.3	1	4	68	0.00	29.930 
08:45	22.1	22.1	22.1	85	18.3	2	5	22	0.00	29.927 
08:50	22.2	22.2	22.2	84	18.1	2	4	112	0.00	29.930 
08:55	22.2	22.2	22.2	84	18.1	1	6	45	0.00	29.932 
09:00	22.4	22.4	22.4	84	18.3	1	4	68	0.00	29.936 
09:05	22.5	22.5	22.5	84	18.4	1	4	68	0.00	29.942 
09:10	22.7	22.7	22.7	84	18.6	1	3	90	0.00	29.942 
09:15	22.7	22.7	22.7	83	18.3	1	5	112	0.00	29.951 
09:20	22.9	22.9	22.9	83	18.5	1	6	45	0.00	29.951 
09:25	23.0	23.0	23.0	82	18.3	1	3	112	0.00	29.953 
09:30	23.2	23.2	23.2	83	18.8	1	3	112	0.00	29.950 
09:35	23.5	23.5	23.5	82	18.8	0	2	90	0.00	29.952 
09:40	23.8	23.8	23.8	82	19.1	0	2	68	0.00	29.950 
09:45	23.9	23.9	23.9	81	18.9	0	1	68	0.00	29.943 
09:50	24.2	24.2	24.2	81	19.2	1	2	45	0.00	29.942 
09:55	24.2	24.2	24.2	80	18.9	1	4	112	0.00	29.945 
10:00	24.4	24.4	24.4	79	18.8	1	3	112	0.00	29.943 
10:05	24.2	24.2	24.2	79	18.6	0	1	22	0.00	29.945 
10:10	24.4	24.4	24.4	79	18.8	1	3	135	0.00	29.944 
10:15	24.4	24.4	24.4	79	18.8	1	3	45	0.00	29.940 
10:20	24.4	24.4	24.4	79	18.8	1	4	90	0.00	29.941 
10:25	24.8	24.8	24.8	79	19.2	1	3	112	0.00	29.939 
10:30	25.3	25.3	25.3	77	19.1	2	6	90	0.00	29.938 
10:35	25.7	25.7	25.7	77	19.5	2	6	112	0.00	29.937 
10:40	26.0	26.0	26.0	76	19.5	3	6	112	0.00	29.933 
10:45	25.7	25.7	25.7	76	19.2	3	6	112	0.00	29.935 
10:50	25.4	25.4	25.4	77	19.2	2	6	112	0.00	29.935 
10:55	25.7	25.7	25.7	77	19.5	1	6	45	0.00	29.934 
11:00	26.0	26.0	26.0	76	19.5	1	4	90	0.00	29.932 
11:05	25.7	25.7	25.7	76	19.2	2	6	22	0.00	29.935 
11:10	25.4	25.4	25.4	76	18.9	2	5	68	0.00	29.934 
11:15	25.1	25.1	25.1	77	18.9	1	4	68	0.00	29.938 
11:20	25.0	25.0	25.0	77	18.8	1	6	68	0.00	29.937 
11:25	25.0	25.0	25.0	77	18.8	2	7	45	0.00	29.934 
11:30	25.1	25.1	25.1	77	18.9	2	4	45	0.00	29.929 
11:35	25.6	25.6	25.6	76	19.1	2	5	112	0.00	29.929 
11:40	25.7	25.7	25.7	76	19.2	3	8	112	0.00	29.928 
11:45	25.7	20.8	25.7	75	18.9	4	9	112	0.00	29.929 
11:50	25.8	25.8	25.8	76	19.3	2	5	112	0.00	29.925 
11:55	26.0	26.0	26.0	75	19.2	2	9	68	0.00	29.925 
12:00	26.1	26.1	26.1	75	19.3	3	7	112	0.00	29.922 
12:05	26.4	26.4	26.4	75	19.6	2	5	112	0.00	29.920 
12:10	26.3	26.3	26.3	75	19.5	3	10	112	0.00	29.919 
12:15	26.4	26.4	26.4	74	19.3	2	6	68	0.00	29.918 
12:20	26.3	26.3	26.3	73	18.8	3	8	112	0.00	29.911 
12:25	26.3	26.3	26.3	74	19.2	2	7	112	0.00	29.914 
12:30	26.3	26.3	26.3	74	19.2	3	9	112	0.00	29.906 
12:35	26.3	26.3	26.3	74	19.2	3	8	90	0.00	29.904 
12:40	26.3	21.5	26.3	73	18.8	4	10	112	0.00	29.904 
12:45	26.3	21.5	26.3	73	18.8	4	11	112	0.00	29.902 
12:50	26.3	21.5	26.3	73	18.8	4	10	112	0.00	29.902 
12:55	26.6	26.6	26.6	74	19.5	2	6	90	0.00	29.900 
13:00	26.7	26.7	26.7	73	19.2	3	10	112	0.00	29.895 
13:05	26.6	21.8	26.6	73	19.1	4	11	112	0.01	29.897 
13:10	26.6	21.8	26.6	73	19.1	4	11	112	0.00	29.897 
13:15	26.6	21.8	26.6	73	19.1	4	9	112	0.00	29.902 
13:20	26.7	26.7	26.7	73	19.2	3	10	112	0.00	29.902 
13:25	26.6	20.7	26.6	73	19.1	5	11	90	0.00	29.904 
13:30	27.0	27.0	27.0	73	19.5	3	6	112	0.00	29.904 
13:35	27.6	27.6	27.6	72	19.8	3	10	112	0.00	29.904 
13:40	27.6	21.9	27.6	71	19.4	5	10	112	0.01	29.905 
13:45	27.3	19.8	27.3	70	18.8	7	13	90	0.00	29.904 
13:50	27.0	22.3	27.0	71	18.9	4	10	112	0.00	29.906 
13:55	27.2	27.2	27.2	72	19.4	2	7	112	0.00	29.905 
14:00	27.6	27.6	27.6	71	19.4	3	7	112	0.00	29.901 
14:05	27.8	23.2	27.8	71	19.6	4	10	112	0.00	29.898 
14:10	27.6	21.9	27.6	69	18.8	5	12	90	0.01	29.896 
14:15	27.5	27.5	27.5	71	19.4	3	6	112	0.00	29.899 
14:20	27.3	22.6	27.3	70	18.8	4	9	112	0.00	29.894 
14:25	27.6	27.6	27.6	72	19.8	3	10	112	0.00	29.895 
14:30	27.9	27.9	27.9	72	20.1	2	8	90	0.00	29.900 
14:35	28.2	28.2	28.2	70	19.7	1	5	90	0.00	29.901 
14:40	28.1	28.1	28.1	69	19.3	2	9	45	0.00	29.900 
14:45	27.8	27.8	27.8	70	19.3	1	5	90	0.00	29.898 
14:50	27.8	27.8	27.8	69	19.0	1	5	45	0.00	29.894 
14:55	27.6	27.6	27.6	70	19.1	1	4	90	0.00	29.900 
15:00	27.6	27.6	27.6	70	19.1	2	5	90	0.00	29.904 
15:05	27.5	27.5	27.5	70	19.0	3	5	90	0.00	29.912 
15:10	27.5	27.5	27.5	70	19.0	3	7	112	0.00	29.916 
15:15	27.3	27.3	27.3	70	18.8	3	6	112	0.00	29.919 
15:20	27.5	27.5	27.5	70	19.0	2	5	112	0.00	29.922 
15:25	27.5	27.5	27.5	70	19.0	2	5	112	0.00	29.919 
15:30	27.5	27.5	27.5	70	19.0	2	6	90	0.00	29.917 
15:35	27.3	27.3	27.3	69	18.5	3	5	112	0.00	29.915 
15:40	27.3	27.3	27.3	71	19.2	1	4	112	0.00	29.914 
15:45	27.5	27.5	27.5	70	19.0	1	4	45	0.00	29.915 
15:50	27.6	27.6	27.6	70	19.1	1	4	112	0.00	29.909 
15:55	27.6	27.6	27.6	70	19.1	1	3	90	0.00	29.905 
16:00	27.6	27.6	27.6	70	19.1	1	4	112	0.00	29.901 
16:05	27.5	27.5	27.5	70	19.0	1	5	135	0.00	29.901 
16:10	27.3	27.3	27.3	70	18.8	1	4	112	0.00	29.900 
16:15	27.3	27.3	27.3	71	19.2	1	3	90	0.00	29.901 
16:20	27.3	27.3	27.3	71	19.2	1	3	45	0.00	29.898 
16:25	27.2	27.2	27.2	70	18.7	1	4	45	0.00	29.897 
16:30	27.2	27.2	27.2	70	18.7	2	5	45	0.00	29.897 
16:35	27.2	27.2	27.2	71	19.1	1	4	112	0.00	29.896 
16:40	27.2	27.2	27.2	71	19.1	1	3	22	0.00	29.891 
16:45	27.3	27.3	27.3	71	19.2	1	4	45	0.00	29.891 
16:50	27.3	27.3	27.3	72	19.5	2	7	90	0.00	29.893 
16:55	27.5	27.5	27.5	72	19.7	2	5	45	0.00	29.890 
17:00	27.6	27.6	27.6	72	19.8	1	4	90	0.00	29.888 
17:05	27.8	27.8	27.8	72	20.0	2	6	112	0.00	29.887 
17:10	27.8	27.8	27.8	72	20.0	2	5	112	0.00	29.889 
17:15	27.8	27.8	27.8	72	20.0	1	4	112	0.00	29.892 
17:20	27.6	27.6	27.6	72	19.8	2	7	45	0.00	29.901 
17:25	27.5	27.5	27.5	73	20.0	1	4	112	0.00	29.901 
17:30	27.5	27.5	27.5	73	20.0	2	5	90	0.00	29.895 
17:35	27.5	27.5	27.5	73	20.0	1	5	112	0.00	29.894 
17:40	27.3	27.3	27.3	73	19.8	0	2	45	0.00	29.896 
17:45	27.3	27.3	27.3	74	20.1	1	4	112	0.00	29.896 
17:50	27.3	27.3	27.3	74	20.1	1	7	90	0.00	29.896 
17:55	27.3	27.3	27.3	73	19.8	1	4	45	0.00	29.895 
18:00	27.2	27.2	27.2	74	20.0	1	3	45	0.00	29.900 
18:05	27.2	27.2	27.2	73	19.7	1	3	90	0.00	29.901 
18:10	27.2	27.2	27.2	74	20.0	0	3	90	0.00	29.901 
18:15	27.2	27.2	27.2	74	20.0	0	2	90	0.00	29.902 
18:20	27.2	27.2	27.2	74	20.0	1	4	90	0.00	29.902 
18:25	27.2	27.2	27.2	74	20.0	1	3	22	0.00	29.902 
18:30	27.0	27.0	27.0	74	19.8	0	2	22	0.00	29.903 
18:35	27.0	27.0	27.0	75	20.2	1	4	112	0.00	29.904 
18:40	27.0	27.0	27.0	75	20.2	0	1	112	0.00	29.905 
18:45	27.0	27.0	27.0	76	20.5	0	2	45	0.00	29.908 
18:50	27.0	27.0	27.0	76	20.5	0	4	90	0.00	29.912 
18:55	27.0	27.0	27.0	75	20.2	0	1	90	0.00	29.916 
19:00	27.0	27.0	27.0	76	20.5	0	2	90	0.00	29.916 
19:05	27.0	27.0	27.0	76	20.5	0	0	---	0.00	29.919 
19:10	27.0	27.0	27.0	76	20.5	0	1	90	0.00	29.919 
19:15	27.0	27.0	27.0	75	20.2	0	2	90	0.00	29.922 
19:20	27.0	27.0	27.0	75	20.2	0	0	---	0.00	29.923 
19:25	27.0	27.0	27.0	76	20.5	0	1	90	0.00	29.922 
19:30	27.0	27.0	27.0	75	20.2	0	2	90	0.00	29.925 
19:35	27.0	27.0	27.0	75	20.2	0	1	90	0.00	29.928 
19:40	27.0	27.0	27.0	76	20.5	0	1	90	0.00	29.931 
19:45	26.9	26.9	26.9	77	20.7	0	1	90	0.00	29.932 
19:50	26.9	26.9	26.9	77	20.7	0	1	90	0.00	29.933 
19:55	26.7	26.7	26.7	78	20.8	0	1	90	0.00	29.933 
20:00	26.7	26.7	26.7	79	21.1	0	1	90	0.00	29.933 
20:05	26.6	26.6	26.6	78	20.7	0	1	90	0.00	29.932 
20:10	26.6	26.6	26.6	78	20.7	0	1	90	0.00	29.933 
20:15	26.4	26.4	26.4	79	20.8	0	1	90	0.00	29.933 
20:20	26.4	26.4	26.4	79	20.8	0	1	90	0.00	29.933 
20:25	26.3	26.3	26.3	80	21.0	0	2	90	0.00	29.932 
20:30	26.1	26.1	26.1	81	21.1	0	2	90	0.00	29.930 
20:35	26.0	26.0	26.0	82	21.3	0	2	90	0.00	29.930 
20:40	26.0	26.0	26.0	83	21.6	0	1	90	0.00	29.930 
20:45	25.8	25.8	25.8	84	21.6	1	2	90	0.00	29.929 
20:50	25.7	25.7	25.7	84	21.5	1	3	90	0.00	29.930 
20:55	25.6	25.6	25.6	85	21.7	1	4	90	0.00	29.932 
21:00	25.6	25.6	25.6	86	22.0	0	2	90	0.00	29.933 
21:05	25.4	25.4	25.4	86	21.8	0	3	90	0.00	29.932 
21:10	25.4	25.4	25.4	86	21.8	1	2	90	0.00	29.932 
21:15	25.4	25.4	25.4	87	22.1	0	2	90	0.00	29.932 
21:20	25.3	25.3	25.3	87	22.0	0	0	---	0.00	29.932 
21:25	25.3	25.3	25.3	88	22.3	0	1	90	0.00	29.933 
21:30	25.3	25.3	25.3	88	22.3	0	1	90	0.00	29.931 
21:35	25.3	25.3	25.3	88	22.3	0	1	90	0.00	29.932 
21:40	25.3	25.3	25.3	88	22.3	0	2	90	0.00	29.931 
21:45	25.3	25.3	25.3	88	22.3	0	1	90	0.00	29.930 
21:50	25.3	25.3	25.3	88	22.3	0	1	90	0.00	29.930 
21:55	25.3	25.3	25.3	88	22.3	0	1	90	0.00	29.929 
22:00	25.3	25.3	25.3	88	22.3	0	0	---	0.00	29.927 
22:05	25.3	25.3	25.3	89	22.5	0	1	90	0.00	29.928 
22:10	25.1	25.1	25.1	89	22.3	0	1	90	0.00	29.929 
22:15	25.1	25.1	25.1	89	22.3	0	1	90	0.00	29.930 
22:20	25.1	25.1	25.1	89	22.3	0	0	---	0.00	29.930 
22:25	25.1	25.1	25.1	89	22.3	0	0	---	0.00	29.931 
22:30	25.1	25.1	25.1	88	22.1	0	0	---	0.00	29.931 
22:35	25.0	25.0	25.0	88	22.0	0	0	---	0.00	29.931 
22:40	25.0	25.0	25.0	88	22.0	0	0	---	0.00	29.932 
22:45	24.8	24.8	24.8	88	21.8	0	0	---	0.00	29.934 
22:50	24.8	24.8	24.8	88	21.8	0	0	---	0.00	29.936 
22:55	24.8	24.8	24.8	88	21.8	0	0	---	0.00	29.938 
23:00	25.0	25.0	25.0	89	22.2	0	0	---	0.00	29.938 
23:05	25.0	25.0	25.0	89	22.2	0	0	---	0.00	29.938 
23:10	25.0	25.0	25.0	89	22.2	0	0	---	0.00	29.941 
23:15	25.0	25.0	25.0	89	22.2	0	0	---	0.00	29.944 
23:20	25.1	25.1	25.1	89	22.3	0	0	---	0.00	29.945 
23:25	25.1	25.1	25.1	89	22.3	0	0	---	0.00	29.946 
23:30	25.0	25.0	25.0	89	22.2	0	0	---	0.00	29.948 
23:35	25.0	25.0	25.0	89	22.2	0	0	---	0.00	29.947 
23:40	25.0	25.0	25.0	89	22.2	0	0	---	0.00	29.947 
23:45	25.0	25.0	25.0	89	22.2	0	0	---	0.00	29.947 
23:50	25.0	25.0	25.0	89	22.2	0	0	---	0.00	29.948 
23:55	25.0	25.0	25.0	89	22.2	0	0	---	0.00	29.948 

CoCoRaHS
IN-AL-39
A2 Web Hosting
Creative Commons License
GoDaddy
Look for:

loaded 2017-10-19 14:44:58 • last modified 2010-11-18 10:43:29
Privacy PolicyDisclaimer
• wx.awcolley.com is powered by PmWiki v.2002016 •
• all content (unless otherwise noted) © 2017 A W Colley